Location: Hope
(40.9110°N, 74.9680°W)
Time: 02:22:55
(UTC-04:00)

Hubble Space Telescope - Visible Passes

Search period start: 19 March 2019 00:00
Search period end: 29 March 2019 00:00
Orbit: 537 x 540 km, 28.5° (Epoch: 17 March)

Date Brightness Start Highest point End Pass type
(mag) Time Alt. Az. Time Alt. Az. Time Alt. Az.
25 Mar 3.1 20:52:54 10° SSW 20:53:49 12° S 20:53:49 12° S visible
26 Mar 2.9 20:41:58 10° SSW 20:43:55 13° S 20:44:06 13° S visible
27 Mar 2.8 20:31:10 10° SSW 20:33:19 14° S 20:34:20 13° SSE visible
28 Mar 2.9 20:20:27 10° SSW 20:22:42 14° S 20:24:32 11° SSE visible
